This demonstration page uses our WeatherBlox Daily Observations layout. Learn more.

Left ArrowRight Arrow

Hourly Observations for February 14, 2016

Temp ( °F °C ) Dew Point ( °F °C ) Humidity (%) Winds ( mph kmh ) Pressure ( in mb ) Visibility ( mi km ) Precip ( " mm )
12:15 am 00:15 Partly Cloudy 18 -7.7 12 -10.9 78 78 SSW 9 15 30.18 1022 10 16 N/A
12:35 am 00:35 Partly Cloudy 19 -7.2 12 -10.9 75 75 SW 6 9 30.18 1022 10 16 N/A
12:55 am 00:55 Clear 20 -6.6 13 -10.7 73 73 SSW 12 19 30.18 1022 10 16 N/A
1:15 am 01:15 Mostly Cloudy 21 -5.9 13 -10.5 70 70 SW 12 19 30.15 1021 10 16 N/A
1:35 am 01:35 Mostly Cloudy 23 -4.8 14 -10.1 67 67 SW 10 17 30.15 1021 10 16 N/A
1:55 am 01:55 Partly Cloudy 23 -5.1 14 -10 69 69 SW 9 15 30.12 1020 10 16 N/A
2:15 am 02:15 Clear 22 -5.4 14 -9.9 71 71 SW 10 17 30.12 1020 10 16 N/A
2:35 am 02:35 Clear 24 -4.7 16 -9.1 72 72 SW 12 19 30.12 1020 10 16 N/A
2:55 am 02:55 Clear 22 -5.5 14 -9.8 72 72 SW 6 9 30.09 1019 10 16 N/A
3:15 am 03:15 Clear 22 -5.7 15 -9.6 74 74 SSW 6 9 30.09 1019 10 16 N/A
3:35 am 03:35 Clear 22 -5.7 15 -9.2 77 77 SSW 5 7 30.09 1019 10 16 N/A
3:55 am 03:55 Clear 22 -5.5 17 -8.5 80 80 SW 6 9 30.06 1018 10 16 N/A
4:15 am 04:15 Clear 22 -5.8 17 -8.6 81 81 SW 6 9 30.06 1018 10 16 N/A
4:35 am 04:35 Clear 22 -5.5 18 -7.6 85 85 WSW 7 11 30.06 1018 10 16 N/A
4:55 am 04:55 Clear 23 -5 19 -7.4 83 83 W 9 15 30.06 1018 10 16 N/A
5:15 am 05:15 Clear 22 -5.4 19 -7.4 86 86 W 9 15 30.06 1018 10 16 N/A
5:35 am 05:35 Clear 24 -4.6 20 -6.7 85 85 WNW 8 13 30.06 1018 10 16 N/A
5:55 am 05:55 Clear 21 -6 17 -8.1 85 85 W 7 11 30.06 1018 10 16 N/A
6:15 am 06:15 Clear 23 -4.8 20 -6.5 88 88 W 7 11 30.06 1018 10 16 N/A
6:35 am 06:35 Clear 25 -4 20 -6.4 84 84 WNW 7 11 30.03 1017 10 16 N/A
6:55 am 06:55 Clear 27 -2.8 23 -5.1 84 84 W 9 15 30.03 1017 10 16 N/A
7:15 am 07:15 Clear 26 -3.1 21 -6.1 80 80 W 5 7 30.03 1017 10 16 N/A
7:35 am 07:35 Sunny 27 -2.6 22 -5.4 81 81 W 8 13 30.03 1017 10 16 N/A
7:55 am 07:55 Sunny 30 -1.3 23 -4.9 77 77 W 9 15 30.00 1016 10 16 N/A
8:15 am 08:15 Sunny 31 -0.7 24 -4.5 76 76 W 8 13 30.00 1016 10 16 N/A
8:35 am 08:35 Sunny 31 -0.5 24 -4.5 75 75 W 9 15 30.00 1016 10 16 N/A
8:55 am 08:55 Sunny 32 undefined 24 -4.2 74 74 WNW 7 11 30.00 1016 10 16 N/A
9:15 am 09:15 Sunny 33 0.4 25 -3.7 74 74 W 6 9 30.00 1016 10 16 N/A
9:35 am 09:35 Sunny 36 2 26 -3.2 69 69 WNW 6 9 29.94 1014 10 16 N/A
9:55 am 09:55 Sunny 37 2.5 26 -3.1 67 67 WNW 5 7 29.94 1014 10 16 N/A
10:15 am 10:15 Sunny 37 2.7 27 -2.9 67 67 W 8 13 29.94 1014 10 16 N/A
10:35 am 10:35 Sunny 40 4.4 28 -2.2 63 63 W 7 11 29.94 1014 10 16 N/A
10:55 am 10:55 Sunny 41 5.1 28 -2.4 59 59 W 8 13 29.91 1013 10 16 N/A
11:15 am 11:15 Sunny 42 5.8 28 -2 58 58 W 7 11 29.91 1013 10 16 N/A
11:35 am 11:35 Sunny 44 6.7 28 -2.2 53 53 W 8 13 29.91 1013 10 16 N/A
11:55 am 11:55 Sunny 45 7.3 29 -1.9 52 52 W 8 13 29.91 1013 10 16 N/A
12:15 pm 12:15 Sunny 44 6.7 30 -1 58 58 SW 7 11 29.91 1013 10 16 N/A
12:35 pm 12:35 Sunny 43 6.3 30 -1.2 59 59 WSW 9 15 29.91 1013 10 16 N/A
12:55 pm 12:55 Sunny 45 7.3 30 -1.1 56 56 WSW 8 13 29.88 1012 10 16 N/A
1:15 pm 13:15 Sunny 46 8 30 -1.3 52 52 WSW 9 15 29.85 1011 10 16 N/A
1:35 pm 13:35 Sunny 47 8.6 30 -1.1 51 51 WSW 9 15 29.85 1011 10 16 N/A
1:55 pm 13:55 Sunny 47 8.1 30 -1.3 52 52 WSW 8 13 29.83 1010 10 16 N/A
2:15 pm 14:15 Sunny 48 8.8 29 -1.7 48 48 WSW 10 17 29.83 1010 10 16 N/A
2:35 pm 14:35 Partly Cloudy 47 8.1 30 -1 53 53 WSW 9 15 29.83 1010 10 16 N/A
2:55 pm 14:55 Partly Cloudy 47 8.3 31 -0.5 54 54 SW 7 11 29.83 1010 10 16 N/A
3:15 pm 15:15 Mostly Cloudy 47 8.6 30 -1 51 51 WSW 9 15 29.83 1010 10 16 N/A
3:35 pm 15:35 Partly Cloudy 47 8.4 30 -1 52 52 WSW 8 13 29.83 1010 10 16 N/A
3:55 pm 15:55 Sunny 46 8 30 -1 53 53 WSW 8 13 29.83 1010 10 16 N/A
4:15 pm 16:15 Sunny 46 7.9 30 -1.2 53 53 W 10 17 29.83 1010 10 16 N/A
4:35 pm 16:35 Sunny 46 7.6 30 -1.3 54 54 W 10 17 29.83 1010 10 16 N/A
4:55 pm 16:55 Sunny 45 7.2 29 -1.5 54 54 W 8 13 29.85 1011 10 16 N/A
5:15 pm 17:15 Sunny 43 6.3 29 -1.6 57 57 W 8 13 29.85 1011 10 16 N/A
5:35 pm 17:35 Sunny 42 5.4 29 -1.7 61 61 W 5 7 29.85 1011 10 16 N/A
5:55 pm 17:55 Sunny 40 4.5 29 -1.5 65 65 SW 3 6 29.85 1011 10 16 N/A
6:15 pm 18:15 Clear 40 4.5 29 -1.7 64 64 WSW 6 9 29.85 1011 10 16 N/A
6:35 pm 18:35 Clear 40 4.5 28 -2 63 63 WSW 5 7 29.85 1011 10 16 N/A
6:55 pm 18:55 Clear 38 3.3 29 -1.6 71 71 WSW 5 7 29.88 1012 10 16 N/A
7:15 pm 19:15 Clear 37 2.9 29 -1.7 72 72 SW 6 9 29.88 1012 10 16 N/A
7:35 pm 19:35 Clear 37 2.6 28 -2 72 72 SW 7 11 29.88 1012 10 16 N/A
7:55 pm 19:55 Clear 37 2.5 28 -2 73 73 SW 7 11 29.88 1012 10 16 N/A
8:15 pm 20:15 Clear 37 3 29 -1.9 71 71 SW 6 9 29.88 1012 10 16 N/A
8:35 pm 20:35 Clear 37 2.5 28 -2.1 72 72 SW 3 6 29.88 1012 10 16 N/A
8:55 pm 20:55 Partly Cloudy 37 2.6 28 -2 72 72 SSW 6 9 29.88 1012 10 16 N/A
9:15 pm 21:15 Partly Cloudy 36 2 28 -2.4 73 73 N N/A 29.88 1012 10 16 N/A
9:35 pm 21:35 Mostly Cloudy 38 3.3 28 -2.2 68 68 N N/A 29.88 1012 10 16 N/A
9:55 pm 21:55 Mostly Cloudy 36 2.4 28 -2.5 70 70 W 3 6 29.88 1012 10 16 N/A
10:15 pm 22:15 Partly Cloudy 35 1.9 28 -2.5 73 73 W 6 9 29.88 1012 10 16 N/A
10:35 pm 22:35 Clear 34 1.2 28 -2.5 77 77 W 6 9 29.88 1012 10 16 N/A
10:55 pm 22:55 Clear 38 3.1 29 -1.7 71 71 W 8 13 29.88 1012 10 16 N/A
11:15 pm 23:15 Partly Cloudy 38 3.5 29 -1.9 68 68 W 12 19 29.88 1012 10 16 N/A
11:35 pm 23:35 Mostly Cloudy 39 4.1 29 -1.8 66 66 WNW 9 15 29.91 1013 10 16 N/A
11:55 pm 23:55 Cloudy 38 3.2 28 -2 69 69 WNW 9 15 29.91 1013 10 16 N/A

Powered by AerisWeather